Hourly Weather Lugowo

Today, 16 June, Wednesday

Time Temperature Precipitation Wind Pressure Humidity
00:00 +15°C° 0 mm 2 mps 756 mmHg 87%
01:00 +14°C° 0 mm 2 mps 756 mmHg 86%
02:00 +13°C° 0 mm 2 mps 756 mmHg 85%
03:00 +13°C° 0 mm 2 mps 756 mmHg 85%
04:00 +12°C° 0 mm 2 mps 756 mmHg 84%
05:00 +14°C° 0 mm 2 mps 756 mmHg 79%
06:00 +15°C° 0 mm 2 mps 756 mmHg 75%
07:00 +16°C° 0 mm 2 mps 756 mmHg 70%
08:00 +18°C° 0 mm 2 mps 756 mmHg 66%
09:00 +20°C° 0 mm 2 mps 756 mmHg 62%
10:00 +23°C° 0 mm 2 mps 756 mmHg 58%
11:00 +25°C° 0 mm 2 mps 756 mmHg 55%
12:00 +26°C° 0 mm 2 mps 756 mmHg 51%
13:00 +27°C° 0 mm 2 mps 755 mmHg 49%
14:00 +27°C° 0 mm 2 mps 755 mmHg 49%
15:00 +27°C° 0 mm 2 mps 755 mmHg 49%
16:00 +28°C° 0 mm 2 mps 755 mmHg 49%
17:00 +27°C° 0 mm 2 mps 755 mmHg 56%
18:00 +25°C° 0 mm 3 mps 755 mmHg 62%
19:00 +24°C° 0 mm 3 mps 754 mmHg 69%
20:00 +22°C° 0 mm 3 mps 755 mmHg 74%
21:00 +20°C° 0 mm 3 mps 755 mmHg 79%
22:00 +19°C° 0 mm 3 mps 755 mmHg 83%
23:00 +18°C° 0 mm 3 mps 755 mmHg 85%

Tomorrow, 17 June, Thursday

Time Temperature Precipitation Wind Pressure Humidity
00:00 +18°C° 0 mm 3 mps 755 mmHg 87%
01:00 +18°C° 0 mm 3 mps 755 mmHg 89%
02:00 +17°C° 0 mm 2 mps 755 mmHg 91%
03:00 +17°C° 0 mm 2 mps 755 mmHg 92%
04:00 +17°C° 0 mm 2 mps 755 mmHg 93%
05:00 +19°C° 0 mm 2 mps 755 mmHg 85%
06:00 +21°C° 0 mm 2 mps 755 mmHg 77%
07:00 +24°C° 0 mm 3 mps 755 mmHg 69%
08:00 +25°C° 0 mm 3 mps 755 mmHg 63%
09:00 +27°C° 0 mm 4 mps 755 mmHg 57%
10:00 +29°C° 0 mm 4 mps 755 mmHg 50%
11:00 +30°C° 0 mm 4 mps 755 mmHg 47%
12:00 +30°C° 0 mm 4 mps 755 mmHg 44%
13:00 +32°C° 0 mm 5 mps 755 mmHg 42%
14:00 +32°C° 0 mm 5 mps 755 mmHg 42%
15:00 +32°C° 0 mm 4 mps 754 mmHg 42%
16:00 +32°C° 0 mm 4 mps 754 mmHg 42%
17:00 +30°C° 0 mm 4 mps 754 mmHg 48%
18:00 +29°C° 0 mm 3 mps 754 mmHg 55%
19:00 +27°C° 0 mm 3 mps 754 mmHg 62%
20:00 +26°C° 0 mm 3 mps 754 mmHg 66%
21:00 +25°C° 0 mm 3 mps 755 mmHg 70%
22:00 +22°C° 0 mm 4 mps 755 mmHg 75%
23:00 +21°C° 0 mm 3 mps 755 mmHg 77%

Day after tomorrow, 18 June, Friday

Time Temperature Precipitation Wind Pressure Humidity
00:00 +20°C° 0 mm 3 mps 755 mmHg 78%
01:00 +20°C° 0 mm 3 mps 754 mmHg 80%
02:00 +19°C° 0 mm 3 mps 754 mmHg 82%
03:00 +19°C° 0 mm 3 mps 754 mmHg 84%
04:00 +18°C° 0 mm 2 mps 754 mmHg 85%
05:00 +20°C° 0 mm 3 mps 755 mmHg 78%
06:00 +22°C° 0 mm 3 mps 755 mmHg 71%
07:00 +25°C° 0 mm 3 mps 755 mmHg 65%
08:00 +27°C° 0 mm 3 mps 754 mmHg 58%
09:00 +29°C° 0 mm 3 mps 754 mmHg 51%
10:00 +32°C° 0 mm 4 mps 754 mmHg 44%
11:00 +32°C° 0 mm 4 mps 754 mmHg 41%
12:00 +33°C° 0 mm 4 mps 754 mmHg 39%
13:00 +34°C° 0 mm 4 mps 753 mmHg 37%
14:00 +34°C° 0 mm 4 mps 753 mmHg 37%
15:00 +34°C° 0 mm 4 mps 753 mmHg 38%
16:00 +34°C° 0 mm 4 mps 753 mmHg 39%
17:00 +32°C° 0 mm 4 mps 753 mmHg 45%
18:00 +30°C° 0 mm 3 mps 753 mmHg 52%
19:00 +29°C° 0 mm 3 mps 753 mmHg 59%
20:00 +27°C° 0 mm 3 mps 753 mmHg 63%
21:00 +26°C° 0 mm 3 mps 753 mmHg 67%
22:00 +24°C° 0 mm 2 mps 753 mmHg 72%
23:00 +23°C° 0 mm 2 mps 753 mmHg 74%

19 June, Saturday

Time Temperature Precipitation Wind Pressure Humidity
00:00 +23°C° 0 mm 2 mps 753 mmHg 77%
01:00 +21°C° 0 mm 2 mps 753 mmHg 79%
02:00 +20°C° 0 mm 2 mps 753 mmHg 79%
03:00 +20°C° 0 mm 2 mps 753 mmHg 79%
04:00 +20°C° 0 mm 2 mps 753 mmHg 79%
05:00 +23°C° 0 mm 2 mps 753 mmHg 72%
06:00 +25°C° 0 mm 2 mps 753 mmHg 65%
07:00 +26°C° 0 mm 3 mps 753 mmHg 58%
08:00 +28°C° 0 mm 3 mps 753 mmHg 52%
09:00 +30°C° 0 mm 3 mps 753 mmHg 47%
10:00 +33°C° 0 mm 3 mps 753 mmHg 41%
11:00 +34°C° 0 mm 2 mps 753 mmHg 38%
12:00 +35°C° 0 mm 2 mps 752 mmHg 35%
13:00 +36°C° 0 mm 2 mps 752 mmHg 32%
14:00 +36°C° 0 mm 2 mps 752 mmHg 33%
15:00 +36°C° 0 mm 2 mps 752 mmHg 33%
16:00 +36°C° 0 mm 2 mps 752 mmHg 33%
17:00 +34°C° 0 mm 2 mps 752 mmHg 41%
18:00 +31°C° 0 mm 2 mps 752 mmHg 49%
19:00 +29°C° 0 mm 2 mps 752 mmHg 57%
20:00 +27°C° 2 mm 3 mps 752 mmHg 66%
21:00 +25°C° 2 mm 4 mps 752 mmHg 75%
22:00 +22°C° 2 mm 4 mps 753 mmHg 84%
23:00 +21°C° 0.3 mm 3 mps 753 mmHg 86%

20 June, Sunday

Time Temperature Precipitation Wind Pressure Humidity
00:00 +21°C° 0.3 mm 2 mps 752 mmHg 87%
01:00 +22°C° 0.3 mm 1 mps 752 mmHg 89%
02:00 +22°C° 0 mm 1 mps 752 mmHg 90%
03:00 +22°C° 0 mm 1 mps 752 mmHg 90%
04:00 +21°C° 0 mm 1 mps 752 mmHg 91%
05:00 +23°C° 0 mm 1 mps 752 mmHg 86%
06:00 +24°C° 0 mm 1 mps 752 mmHg 82%
07:00 +25°C° 0 mm 2 mps 752 mmHg 77%
08:00 +27°C° 0 mm 1 mps 752 mmHg 68%
09:00 +29°C° 0 mm 1 mps 752 mmHg 60%
10:00 +31°C° 0 mm 1 mps 752 mmHg 51%
11:00 +32°C° 0 mm 1 mps 752 mmHg 47%
12:00 +34°C° 0 mm 2 mps 751 mmHg 44%
13:00 +35°C° 0 mm 2 mps 751 mmHg 40%
14:00 +35°C° 0 mm 3 mps 751 mmHg 40%
15:00 +35°C° 0 mm 3 mps 750 mmHg 40%
16:00 +35°C° 0 mm 4 mps 750 mmHg 40%
17:00 +34°C° 0 mm 4 mps 750 mmHg 47%
18:00 +32°C° 0 mm 4 mps 750 mmHg 54%
19:00 +30°C° 0 mm 4 mps 750 mmHg 61%
20:00 +28°C° 0 mm 4 mps 749 mmHg 64%
21:00 +27°C° 0 mm 4 mps 749 mmHg 67%
22:00 +26°C° 0 mm 3 mps 749 mmHg 69%
23:00 +25°C° 0 mm 3 mps 749 mmHg 71%

21 June, Monday

Time Temperature Precipitation Wind Pressure Humidity
00:00 +24°C° 0 mm 3 mps 749 mmHg 73%
01:00 +22°C° 0 mm 3 mps 749 mmHg 75%
02:00 +23°C° 0 mm 2 mps 749 mmHg 77%
03:00 +21°C° 0 mm 2 mps 749 mmHg 80%
04:00 +21°C° 0 mm 2 mps 749 mmHg 83%
05:00 +23°C° 0 mm 2 mps 749 mmHg 78%
06:00 +25°C° 0 mm 3 mps 749 mmHg 74%
07:00 +26°C° 0 mm 3 mps 749 mmHg 69%
08:00 +28°C° 0 mm 3 mps 749 mmHg 64%
09:00 +29°C° 0 mm 2 mps 749 mmHg 59%
10:00 +30°C° 0 mm 2 mps 749 mmHg 54%
11:00 +31°C° 0 mm 2 mps 749 mmHg 54%
12:00 +31°C° 0 mm 3 mps 749 mmHg 53%
13:00 +33°C° 0 mm 3 mps 748 mmHg 52%
14:00 +32°C° 0 mm 2 mps 748 mmHg 51%
15:00 +32°C° 0 mm 2 mps 748 mmHg 51%
16:00 +32°C° 0 mm 2 mps 748 mmHg 51%
17:00 +31°C° 0.1 mm 2 mps 748 mmHg 55%
18:00 +30°C° 0.1 mm 1 mps 748 mmHg 60%
19:00 +29°C° 0.1 mm 1 mps 748 mmHg 64%
20:00 +27°C° 0.7 mm 1 mps 748 mmHg 71%
21:00 +26°C° 0.7 mm 1 mps 748 mmHg 79%
22:00 +24°C° 0.7 mm 1 mps 748 mmHg 86%
23:00 +23°C° 0 mm 1 mps 748 mmHg 87%
Show more

We Need Your Consent

Meteoprog and our Service Providers may store and access personal data such as cookies, device identifiers or other similar technologies on your device and process such data to personalise content and ads, as well as provide social media features and to analyse the traffic.

  • Store and/or access information on your device

    Cookies, device identifiers or other information can be stored or accessed on your device for the purposes indicated above.

  • Personalised ads and content, ad and content measurement, audience insights, and products development

    Ads and content can be personalised based on a profile. More data can be added to better personalise ads and content. Ad and content performance can be measured. Insights about the audience who saw the ads and content can be derived. Such data can be used to develop or improve user’s experience, systems and software.

By clicking ‘I Agree’ you will allow the use of indicated cookies, device identifiers, web beacons or other similar technologies. Your settings can be changed in the browser on your device.

For certain purposes, legitimate interests may be relied on, rather than consent. You can read more about this in our Privacy and Cookie Policy.